Time,TemperatureF,DewpointF,PressureIn,WindDirection,WindDirectionDegrees,WindSpeedMPH,WindSpeedGustMPH,Humidity,HourlyPrecipIn,Conditions,Clouds,dailyrainin,SoftwareType,DateUTC
2013-01-01 00:02:00,49.8,49.0,30.10,West,274,1.0,1.0,97,0.05,,,0.28,Wunderground v.1.15,2013-01-01 06:02:00,
2013-01-01 00:07:00,49.9,49.1,30.10,SW,231,0.0,1.0,97,0.22,,,0.30,Wunderground v.1.15,2013-01-01 06:07:00,
2013-01-01 00:12:00,49.8,49.0,30.10,WNW,291,3.0,3.0,97,0.08,,,0.30,Wunderground v.1.15,2013-01-01 06:12:00,
2013-01-01 00:17:00,49.8,49.0,30.10,WNW,297,1.0,3.0,97,0.06,,,0.31,Wunderground v.1.15,2013-01-01 06:17:00,
2013-01-01 00:22:00,49.8,49.0,30.09,NNE,33,1.0,2.0,97,0.17,,,0.33,Wunderground v.1.15,2013-01-01 06:22:00,
2013-01-01 00:28:00,49.7,48.9,30.10,NE,36,1.0,2.0,97,0.09,,,0.33,Wunderground v.1.15,2013-01-01 06:28:00,
2013-01-01 00:33:00,49.7,48.9,30.10,WNW,285,0.0,3.0,97,0.05,,,0.33,Wunderground v.1.15,2013-01-01 06:33:00,
2013-01-01 00:38:00,49.6,48.8,30.10,NNW,333,0.0,3.0,97,0.05,,,0.34,Wunderground v.1.15,2013-01-01 06:38:00,
2013-01-01 00:44:00,49.6,48.8,30.09,NW,324,1.0,7.0,97,0.12,,,0.36,Wunderground v.1.15,2013-01-01 06:44:00,
2013-01-01 00:50:00,49.5,48.7,30.10,NW,322,1.0,1.0,97,0.16,,,0.37,Wunderground v.1.15,2013-01-01 06:50:00,
2013-01-01 00:55:00,49.5,48.7,30.10,NW,313,1.0,2.0,97,0.17,,,0.39,Wunderground v.1.15,2013-01-01 06:55:00,
2013-01-01 01:00:00,49.4,48.6,30.10,WNW,302,0.0,1.0,97,0.17,,,0.41,Wunderground v.1.15,2013-01-01 07:00:00,
2013-01-01 01:06:00,49.4,48.6,30.10,WNW,294,0.0,2.0,97,0.11,,,0.42,Wunderground v.1.15,2013-01-01 07:06:00,
2013-01-01 01:11:00,49.3,48.5,30.10,WNW,294,0.0,3.0,97,0.14,,,0.43,Wunderground v.1.15,2013-01-01 07:11:00,
2013-01-01 01:16:00,49.2,48.4,30.11,WSW,257,1.0,3.0,97,0.09,,,0.44,Wunderground v.1.15,2013-01-01 07:16:00,
2013-01-01 01:22:00,49.2,48.4,30.10,NNW,336,0.0,2.0,97,0.10,,,0.45,Wunderground v.1.15,2013-01-01 07:22:00,
2013-01-01 01:27:00,49.0,48.2,30.10,WNW,284,1.0,2.0,97,0.10,,,0.45,Wunderground v.1.15,2013-01-01 07:27:00,
2013-01-01 01:32:00,48.9,48.1,30.09,NNE,14,3.0,3.0,97,0.06,,,0.45,Wunderground v.1.15,2013-01-01 07:32:00,
2013-01-01 01:37:00,48.8,48.0,30.09,West,269,1.0,3.0,97,0.04,,,0.45,Wunderground v.1.15,2013-01-01 07:37:00,
2013-01-01 01:42:00,48.7,47.9,30.11,WSW,255,4.0,4.0,97,0.00,,,0.45,Wunderground v.1.15,2013-01-01 07:42:00,
2013-01-01 01:47:00,48.6,47.8,30.11,West,275,2.0,4.0,97,0.00,,,0.45,Wunderground v.1.15,2013-01-01 07:47:00,
2013-01-01 01:52:00,48.5,47.7,30.11,NNW,338,0.0,2.0,97,0.00,,,0.45,Wunderground v.1.15,2013-01-01 07:52:00,
2013-01-01 01:58:00,48.3,47.5,30.10,NNE,16,4.0,4.0,97,0.00,,,0.46,Wunderground v.1.15,2013-01-01 07:58:00,
2013-01-01 02:03:00,48.2,47.4,30.10,NNE,12,0.0,2.0,97,0.09,,,0.47,Wunderground v.1.15,2013-01-01 08:03:00,
2013-01-01 02:08:00,48.0,47.2,30.10,West,277,1.0,6.0,97,0.07,,,0.47,Wunderground v.1.15,2013-01-01 08:08:00,
2013-01-01 02:13:00,47.9,47.1,30.11,WSW,238,1.0,5.0,97,0.04,,,0.47,Wunderground v.1.15,2013-01-01 08:13:00,
2013-01-01 02:18:00,47.7,46.9,30.11,WNW,285,0.0,5.0,97,0.04,,,0.48,Wunderground v.1.15,2013-01-01 08:18:00,
2013-01-01 02:23:00,47.6,46.8,30.10,NE,38,2.0,3.0,97,0.10,,,0.49,Wunderground v.1.15,2013-01-01 08:23:00,
2013-01-01 02:28:00,47.4,46.6,30.10,NW,321,1.0,5.0,97,0.09,,,0.49,Wunderground v.1.15,2013-01-01 08:28:00,
2013-01-01 02:33:00,47.3,46.5,30.10,NNE,27,2.0,4.0,97,0.07,,,0.50,Wunderground v.1.15,2013-01-01 08:33:00,
2013-01-01 02:38:00,47.2,46.4,30.10,ESE,117,1.0,5.0,97,0.07,,,0.50,Wunderground v.1.15,2013-01-01 08:38:00,
2013-01-01 02:43:00,47.2,46.4,30.10,North,6,1.0,3.0,97,0.05,,,0.50,Wunderground v.1.15,2013-01-01 08:43:00,
2013-01-01 02:48:00,47.2,46.4,30.11,SE,132,0.0,5.0,97,0.00,,,0.50,Wunderground v.1.15,2013-01-01 08:48:00,
2013-01-01 02:53:00,47.2,46.4,30.11,NE,49,0.0,1.0,97,0.00,,,0.50,Wunderground v.1.15,2013-01-01 08:53:00,
2013-01-01 02:58:00,47.1,46.3,30.11,NNE,18,0.0,3.0,97,0.00,,,0.50,Wunderground v.1.15,2013-01-01 08:58:00,
2013-01-01 03:03:00,47.1,46.3,30.12,NNW,339,1.0,1.0,97,0.00,,,0.50,Wunderground v.1.15,2013-01-01 09:03:00,
2013-01-01 03:08:00,47.1,46.3,30.11,NNW,333,0.0,3.0,97,0.00,,,0.50,Wunderground v.1.15,2013-01-01 09:08:00,
2013-01-01 03:13:00,47.1,46.3,30.11,NE,53,0.0,1.0,97,0.00,,,0.50,Wunderground v.1.15,2013-01-01 09:13:00,
2013-01-01 03:18:00,47.0,46.2,30.12,WNW,288,1.0,2.0,97,0.00,,,0.50,Wunderground v.1.15,2013-01-01 09:18:00,
2013-01-01 03:23:00,47.0,46.2,30.12,NW,311,2.0,5.0,97,0.00,,,0.50,Wunderground v.1.15,2013-01-01 09:23:00,
2013-01-01 03:28:00,47.0,46.2,30.12,NNW,341,1.0,5.0,97,0.00,,,0.50,Wunderground v.1.15,2013-01-01 09:28:00,
2013-01-01 03:33:00,47.0,46.2,30.11,North,5,2.0,2.0,97,0.00,,,0.50,Wunderground v.1.15,2013-01-01 09:33:00,
2013-01-01 03:38:00,46.9,46.1,30.11,ENE,67,0.0,2.0,97,0.00,,,0.50,Wunderground v.1.15,2013-01-01 09:38:00,
2013-01-01 03:43:00,46.9,46.1,30.11,NNW,328,0.0,2.0,97,0.00,,,0.50,Wunderground v.1.15,2013-01-01 09:43:00,
2013-01-01 03:48:00,46.8,46.0,30.10,North,356,1.0,4.0,97,0.00,,,0.50,Wunderground v.1.15,2013-01-01 09:48:00,
2013-01-01 03:53:00,46.7,45.9,30.10,NNE,19,0.0,2.0,97,0.00,,,0.50,Wunderground v.1.15,2013-01-01 09:53:00,
2013-01-01 03:58:00,46.6,45.8,30.10,NW,307,0.0,4.0,97,0.00,,,0.50,Wunderground v.1.15,2013-01-01 09:58:00,
2013-01-01 04:03:00,46.6,45.8,30.10,West,280,0.0,3.0,97,0.00,,,0.50,Wunderground v.1.15,2013-01-01 10:03:00,
2013-01-01 04:09:00,46.5,45.7,30.10,NW,324,1.0,3.0,97,0.00,,,0.50,Wunderground v.1.15,2013-01-01 10:09:00,
2013-01-01 04:14:00,46.5,45.7,30.11,WNW,289,0.0,2.0,97,0.00,,,0.50,Wunderground v.1.15,2013-01-01 10:14:00,
2013-01-01 04:19:00,46.5,45.7,30.11,WNW,287,0.0,2.0,97,0.00,,,0.50,Wunderground v.1.15,2013-01-01 10:19:00,
2013-01-01 04:24:00,46.5,45.7,30.11,North,1,0.0,3.0,97,0.00,,,0.50,Wunderground v.1.15,2013-01-01 10:24:00,
2013-01-01 04:29:00,46.5,45.7,30.11,WNW,283,0.0,3.0,97,0.00,,,0.50,Wunderground v.1.15,2013-01-01 10:29:00,
2013-01-01 04:34:00,46.4,45.6,30.11,NW,314,0.0,2.0,97,0.00,,,0.50,Wunderground v.1.15,2013-01-01 10:34:00,
2013-01-01 04:39:00,46.3,45.5,30.10,East,86,0.0,5.0,97,0.00,,,0.50,Wunderground v.1.15,2013-01-01 10:39:00,
2013-01-01 04:44:00,46.3,45.5,30.10,North,8,1.0,3.0,97,0.00,,,0.50,Wunderground v.1.15,2013-01-01 10:44:00,
2013-01-01 04:49:00,46.3,45.5,30.10,NNE,27,2.0,5.0,97,0.00,,,0.50,Wunderground v.1.15,2013-01-01 10:49:00,
2013-01-01 04:54:00,46.2,45.4,30.10,NW,322,0.0,3.0,97,0.00,,,0.50,Wunderground v.1.15,2013-01-01 10:54:00,
2013-01-01 04:59:00,46.2,45.4,30.10,WNW,298,0.0,3.0,97,0.00,,,0.50,Wunderground v.1.15,2013-01-01 10:59:00,
2013-01-01 05:04:00,46.1,45.3,30.10,West,277,0.0,4.0,97,0.00,,,0.50,Wunderground v.1.15,2013-01-01 11:04:00,
2013-01-01 05:10:00,46.0,45.2,30.11,NNW,343,1.0,4.0,97,0.00,,,0.50,Wunderground v.1.15,2013-01-01 11:10:00,
2013-01-01 05:15:00,46.0,45.2,30.11,West,278,2.0,2.0,97,0.00,,,0.50,Wunderground v.1.15,2013-01-01 11:15:00,
2013-01-01 05:20:00,46.1,45.3,30.12,West,277,0.0,0.0,97,0.00,,,0.50,Wunderground v.1.15,2013-01-01 11:20:00,
2013-01-01 05:25:00,46.1,45.3,30.11,NW,319,2.0,5.0,97,0.00,,,0.50,Wunderground v.1.15,2013-01-01 11:25:00,
2013-01-01 05:30:00,46.0,45.2,30.11,NW,321,0.0,2.0,97,0.00,,,0.50,Wunderground v.1.15,2013-01-01 11:30:00,
2013-01-01 05:35:00,46.0,45.2,30.12,ENE,70,1.0,3.0,97,0.00,,,0.50,Wunderground v.1.15,2013-01-01 11:35:00,
2013-01-01 05:40:00,46.0,44.9,30.12,NNW,328,1.0,1.0,96,0.00,,,0.50,Wunderground v.1.15,2013-01-01 11:40:00,
2013-01-01 05:45:00,45.9,44.8,30.12,North,353,0.0,3.0,96,0.00,,,0.50,Wunderground v.1.15,2013-01-01 11:45:00,
2013-01-01 05:50:00,45.8,44.7,30.13,WNW,291,1.0,1.0,96,0.00,,,0.50,Wunderground v.1.15,2013-01-01 11:50:00,
2013-01-01 05:55:00,45.7,44.6,30.14,NNW,345,0.0,3.0,96,0.00,,,0.50,Wunderground v.1.15,2013-01-01 11:55:00,
2013-01-01 06:00:00,45.7,44.6,30.15,SW,234,0.0,1.0,96,0.00,,,0.50,Wunderground v.1.15,2013-01-01 12:00:00,
2013-01-01 06:05:00,45.7,44.6,30.16,WSW,249,2.0,3.0,96,0.00,,,0.50,Wunderground v.1.15,2013-01-01 12:05:00,
2013-01-01 06:10:00,45.6,44.5,30.18,West,281,0.0,1.0,96,0.00,,,0.50,Wunderground v.1.15,2013-01-01 12:10:00,
2013-01-01 06:15:00,45.6,44.5,30.19,NW,311,3.0,8.0,96,0.00,,,0.50,Wunderground v.1.15,2013-01-01 12:15:00,
2013-01-01 06:20:00,45.5,44.4,30.17,WNW,288,1.0,3.0,96,0.00,,,0.50,Wunderground v.1.15,2013-01-01 12:20:00,
2013-01-01 06:25:00,45.3,44.2,30.17,NW,313,2.0,4.0,96,0.00,,,0.50,Wunderground v.1.15,2013-01-01 12:25:00,
2013-01-01 06:30:00,45.2,44.1,30.17,NNW,330,0.0,2.0,96,0.00,,,0.50,Wunderground v.1.15,2013-01-01 12:30:00,
2013-01-01 06:35:00,45.1,44.0,30.17,WNW,300,2.0,9.0,96,0.00,,,0.50,Wunderground v.1.15,2013-01-01 12:35:00,
2013-01-01 06:40:00,44.9,43.8,30.17,WSW,243,1.0,1.0,96,0.00,,,0.50,Wunderground v.1.15,2013-01-01 12:40:00,
2013-01-01 06:45:00,44.8,43.7,30.18,West,281,3.0,4.0,96,0.00,,,0.50,Wunderground v.1.15,2013-01-01 12:45:00,
2013-01-01 06:50:00,44.7,43.6,30.18,WSW,243,0.0,2.0,96,0.00,,,0.50,Wunderground v.1.15,2013-01-01 12:50:00,
2013-01-01 06:55:00,44.6,43.5,30.18,WSW,250,2.0,6.0,96,0.00,,,0.50,Wunderground v.1.15,2013-01-01 12:55:00,
2013-01-01 07:01:00,44.5,43.4,30.17,NNE,33,2.0,3.0,96,0.00,,,0.50,Wunderground v.1.15,2013-01-01 13:01:00,
2013-01-01 07:06:00,44.4,43.3,30.18,NW,311,1.0,5.0,96,0.00,,,0.50,Wunderground v.1.15,2013-01-01 13:06:00,
2013-01-01 07:11:00,44.3,43.0,30.17,NNE,13,4.0,6.0,95,0.00,,,0.50,Wunderground v.1.15,2013-01-01 13:11:00,
2013-01-01 07:16:00,44.2,42.9,30.16,NNW,337,5.0,6.0,95,0.00,,,0.50,Wunderground v.1.15,2013-01-01 13:16:00,
2013-01-01 07:21:00,44.1,42.8,30.17,West,274,1.0,2.0,95,0.00,,,0.50,Wunderground v.1.15,2013-01-01 13:21:00,
2013-01-01 07:26:00,44.1,43.0,30.17,SW,232,1.0,4.0,96,0.00,,,0.50,Wunderground v.1.15,2013-01-01 13:26:00,
2013-01-01 07:31:00,44.0,42.9,30.17,West,281,0.0,1.0,96,0.00,,,0.50,Wunderground v.1.15,2013-01-01 13:31:00,
2013-01-01 07:36:00,44.0,42.9,30.17,West,272,2.0,5.0,96,0.00,,,0.50,Wunderground v.1.15,2013-01-01 13:36:00,
2013-01-01 07:41:00,44.0,42.9,30.18,WNW,294,1.0,4.0,96,0.00,,,0.50,Wunderground v.1.15,2013-01-01 13:41:00,
2013-01-01 07:46:00,44.1,43.0,30.18,NNW,337,0.0,5.0,96,0.00,,,0.50,Wunderground v.1.15,2013-01-01 13:46:00,
2013-01-01 07:51:00,44.1,43.0,30.19,West,269,0.0,2.0,96,0.00,,,0.50,Wunderground v.1.15,2013-01-01 13:51:00,
2013-01-01 07:56:00,44.1,43.0,30.18,NW,316,0.0,5.0,96,0.00,,,0.50,Wunderground v.1.15,2013-01-01 13:56:00,
2013-01-01 08:01:00,44.0,42.9,30.18,NNW,340,2.0,2.0,96,0.00,,,0.50,Wunderground v.1.15,2013-01-01 14:01:00,
2013-01-01 08:06:00,44.0,42.9,30.18,West,260,4.0,4.0,96,0.00,,,0.50,Wunderground v.1.15,2013-01-01 14:06:00,
2013-01-01 08:11:00,44.0,42.9,30.20,West,271,0.0,4.0,96,0.00,,,0.50,Wunderground v.1.15,2013-01-01 14:11:00,
2013-01-01 08:16:00,44.1,43.0,30.21,NNW,330,2.0,4.0,96,0.00,,,0.50,Wunderground v.1.15,2013-01-01 14:16:00,
2013-01-01 08:21:00,44.1,43.0,30.20,NW,304,1.0,2.0,96,0.00,,,0.50,Wunderground v.1.15,2013-01-01 14:21:00,
2013-01-01 08:26:00,44.1,43.0,30.21,NW,308,0.0,2.0,96,0.00,,,0.50,Wunderground v.1.15,2013-01-01 14:26:00,
2013-01-01 08:31:00,44.1,43.0,30.22,NNE,30,0.0,1.0,96,0.00,,,0.50,Wunderground v.1.15,2013-01-01 14:31:00,
2013-01-01 08:36:00,44.1,43.0,30.22,WNW,287,2.0,2.0,96,0.00,,,0.50,Wunderground v.1.15,2013-01-01 14:36:00,
2013-01-01 08:41:00,44.0,42.9,30.22,West,263,1.0,4.0,96,0.00,,,0.50,Wunderground v.1.15,2013-01-01 14:41:00,
2013-01-01 08:46:00,44.0,42.9,30.22,NE,44,1.0,4.0,96,0.00,,,0.50,Wunderground v.1.15,2013-01-01 14:46:00,
2013-01-01 08:51:00,44.1,43.0,30.23,NW,324,1.0,4.0,96,0.00,,,0.50,Wunderground v.1.15,2013-01-01 14:51:00,
2013-01-01 08:56:00,44.0,42.9,30.23,NW,304,2.0,5.0,96,0.00,,,0.50,Wunderground v.1.15,2013-01-01 14:56:00,
2013-01-01 09:02:00,44.0,42.9,30.22,North,358,2.0,2.0,96,0.00,,,0.50,Wunderground v.1.15,2013-01-01 15:02:00,
2013-01-01 09:07:00,44.0,42.7,30.23,SW,232,0.0,6.0,95,0.00,,,0.50,Wunderground v.1.15,2013-01-01 15:07:00,
2013-01-01 09:12:00,44.0,42.9,30.24,NW,312,2.0,5.0,96,0.00,,,0.50,Wunderground v.1.15,2013-01-01 15:12:00,
2013-01-01 09:17:00,44.1,43.0,30.22,North,359,3.0,5.0,96,0.00,,,0.50,Wunderground v.1.15,2013-01-01 15:17:00,
2013-01-01 09:22:00,44.1,42.8,30.23,NW,325,5.0,6.0,95,0.00,,,0.50,Wunderground v.1.15,2013-01-01 15:22:00,
2013-01-01 09:27:00,44.1,42.8,30.23,North,349,1.0,8.0,95,0.00,,,0.50,Wunderground v.1.15,2013-01-01 15:27:00,
2013-01-01 09:32:00,44.1,42.8,30.23,West,270,0.0,2.0,95,0.00,,,0.50,Wunderground v.1.15,2013-01-01 15:32:00,
2013-01-01 09:37:00,44.3,43.0,30.23,North,357,1.0,3.0,95,0.00,,,0.50,Wunderground v.1.15,2013-01-01 15:37:00,
2013-01-01 09:42:00,44.3,43.0,30.23,NNE,33,0.0,2.0,95,0.00,,,0.50,Wunderground v.1.15,2013-01-01 15:42:00,
2013-01-01 09:47:00,44.2,42.9,30.23,NNW,342,1.0,5.0,95,0.00,,,0.50,Wunderground v.1.15,2013-01-01 15:47:00,
2013-01-01 09:52:00,44.1,42.8,30.23,NNW,339,2.0,4.0,95,0.00,,,0.50,Wunderground v.1.15,2013-01-01 15:52:00,
2013-01-01 09:57:00,44.2,42.9,30.23,North,6,0.0,4.0,95,0.00,,,0.50,Wunderground v.1.15,2013-01-01 15:57:00,
2013-01-01 10:02:00,44.3,43.0,30.24,NNW,345,1.0,2.0,95,0.00,,,0.50,Wunderground v.1.15,2013-01-01 16:02:00,
2013-01-01 10:07:00,44.4,43.1,30.24,WNW,291,0.0,2.0,95,0.00,,,0.50,Wunderground v.1.15,2013-01-01 16:07:00,
2013-01-01 10:12:00,44.5,43.2,30.25,NE,34,3.0,3.0,95,0.00,,,0.50,Wunderground v.1.15,2013-01-01 16:12:00,
2013-01-01 10:17:00,44.5,43.2,30.25,NW,320,1.0,4.0,95,0.00,,,0.50,Wunderground v.1.15,2013-01-01 16:17:00,
2013-01-01 10:22:00,44.5,43.2,30.24,NNW,330,2.0,5.0,95,0.00,,,0.50,Wunderground v.1.15,2013-01-01 16:22:00,
2013-01-01 10:27:00,44.6,43.3,30.25,WSW,246,1.0,5.0,95,0.00,,,0.50,Wunderground v.1.15,2013-01-01 16:27:00,
2013-01-01 10:32:00,44.6,43.3,30.27,NW,318,1.0,4.0,95,0.00,,,0.50,Wunderground v.1.15,2013-01-01 16:32:00,
2013-01-01 10:37:00,44.6,43.3,30.27,West,280,3.0,4.0,95,0.00,,,0.50,Wunderground v.1.15,2013-01-01 16:37:00,
2013-01-01 10:42:00,44.7,43.4,30.25,WNW,291,1.0,3.0,95,0.00,,,0.50,Wunderground v.1.15,2013-01-01 16:42:00,
2013-01-01 10:47:00,44.8,43.5,30.26,WNW,284,1.0,6.0,95,0.00,,,0.50,Wunderground v.1.15,2013-01-01 16:47:00,
2013-01-01 10:52:00,44.9,43.6,30.26,NW,308,2.0,7.0,95,0.00,,,0.50,Wunderground v.1.15,2013-01-01 16:52:00,
2013-01-01 10:57:00,44.8,43.2,30.26,WNW,297,2.0,7.0,94,0.00,,,0.50,Wunderground v.1.15,2013-01-01 16:57:00,
2013-01-01 11:02:00,44.9,43.3,30.26,West,267,4.0,6.0,94,0.00,,,0.50,Wunderground v.1.15,2013-01-01 17:02:00,
2013-01-01 11:07:00,45.0,43.7,30.26,NW,326,1.0,6.0,95,0.00,,,0.50,Wunderground v.1.15,2013-01-01 17:07:00,
2013-01-01 11:12:00,45.2,43.6,30.26,WNW,300,6.0,6.0,94,0.00,,,0.50,Wunderground v.1.15,2013-01-01 17:12:00,
2013-01-01 11:17:00,45.1,43.5,30.25,NNE,25,2.0,7.0,94,0.00,,,0.50,Wunderground v.1.15,2013-01-01 17:17:00,
2013-01-01 11:22:00,45.1,43.5,30.24,West,271,4.0,7.0,94,0.00,,,0.50,Wunderground v.1.15,2013-01-01 17:22:00,
2013-01-01 11:27:00,45.3,43.4,30.25,WNW,294,3.0,7.0,93,0.00,,,0.50,Wunderground v.1.15,2013-01-01 17:27:00,
2013-01-01 11:32:00,45.4,43.5,30.25,West,262,3.0,7.0,93,0.00,,,0.50,Wunderground v.1.15,2013-01-01 17:32:00,
2013-01-01 11:37:00,45.4,43.5,30.24,WNW,283,5.0,9.0,93,0.00,,,0.50,Wunderground v.1.15,2013-01-01 17:37:00,
2013-01-01 11:42:00,45.5,43.3,30.24,NNW,330,3.0,12.0,92,0.00,,,0.51,Wunderground v.1.15,2013-01-01 17:42:00,
2013-01-01 11:47:00,45.5,43.0,30.24,NW,311,10.0,12.0,91,0.00,,,0.51,Wunderground v.1.15,2013-01-01 17:47:00,
2013-01-01 11:52:00,45.5,42.7,30.24,WSW,257,1.0,7.0,90,0.00,,,0.51,Wunderground v.1.15,2013-01-01 17:52:00,
2013-01-01 11:58:00,45.4,42.6,30.24,WNW,291,1.0,7.0,90,0.00,,,0.51,Wunderground v.1.15,2013-01-01 17:58:00,
2013-01-01 12:03:00,45.5,43.0,30.24,North,1,6.0,7.0,91,0.00,,,0.51,Wunderground v.1.15,2013-01-01 18:03:00,
2013-01-01 12:08:00,45.8,43.0,30.23,West,266,2.0,7.0,90,0.00,,,0.51,Wunderground v.1.15,2013-01-01 18:08:00,
2013-01-01 12:13:00,46.1,43.3,30.23,NW,304,0.0,8.0,90,0.00,,,0.51,Wunderground v.1.15,2013-01-01 18:13:00,
2013-01-01 12:18:00,46.3,43.2,30.23,NNE,13,2.0,8.0,89,0.00,,,0.51,Wunderground v.1.15,2013-01-01 18:18:00,
2013-01-01 12:23:00,46.1,43.0,30.23,SSW,207,1.0,10.0,89,0.00,,,0.51,Wunderground v.1.15,2013-01-01 18:23:00,
2013-01-01 12:28:00,45.9,42.8,30.24,WNW,287,1.0,10.0,89,0.00,,,0.51,Wunderground v.1.15,2013-01-01 18:28:00,
2013-01-01 12:33:00,46.0,42.9,30.23,NW,319,1.0,7.0,89,0.00,,,0.51,Wunderground v.1.15,2013-01-01 18:33:00,
2013-01-01 12:38:00,46.0,42.9,30.22,NW,323,2.0,7.0,89,0.00,,,0.51,Wunderground v.1.15,2013-01-01 18:38:00,
2013-01-01 12:43:00,45.9,42.8,30.23,WSW,250,1.0,7.0,89,0.00,,,0.51,Wunderground v.1.15,2013-01-01 18:43:00,
2013-01-01 12:48:00,45.9,42.8,30.23,NNW,328,2.0,7.0,89,0.00,,,0.51,Wunderground v.1.15,2013-01-01 18:48:00,
2013-01-01 12:53:00,45.8,42.4,30.22,North,6,8.0,8.0,88,0.00,,,0.51,Wunderground v.1.15,2013-01-01 18:53:00,
2013-01-01 12:58:00,45.7,42.3,30.22,NW,305,4.0,12.0,88,0.00,,,0.51,Wunderground v.1.15,2013-01-01 18:58:00,
2013-01-01 13:03:00,45.7,42.1,30.22,WSW,243,2.0,8.0,87,0.00,,,0.51,Wunderground v.1.15,2013-01-01 19:03:00,
2013-01-01 13:08:00,45.7,42.1,30.23,West,273,2.0,9.0,87,0.00,,,0.51,Wunderground v.1.15,2013-01-01 19:08:00,
2013-01-01 13:13:00,45.7,41.8,30.23,NW,305,1.0,8.0,86,0.00,,,0.51,Wunderground v.1.15,2013-01-01 19:13:00,
2013-01-01 13:18:00,45.8,41.9,30.23,SW,235,4.0,8.0,86,0.00,,,0.51,Wunderground v.1.15,2013-01-01 19:18:00,
2013-01-01 13:23:00,45.7,41.8,30.23,WNW,291,8.0,8.0,86,0.00,,,0.51,Wunderground v.1.15,2013-01-01 19:23:00,
2013-01-01 13:28:00,45.8,41.9,30.24,WNW,284,7.0,12.0,86,0.00,,,0.51,Wunderground v.1.15,2013-01-01 19:28:00,
2013-01-01 13:33:00,45.8,41.9,30.23,NW,311,5.0,10.0,86,0.00,,,0.51,Wunderground v.1.15,2013-01-01 19:33:00,
2013-01-01 13:38:00,45.8,41.9,30.23,NW,316,2.0,10.0,86,0.00,,,0.51,Wunderground v.1.15,2013-01-01 19:38:00,
2013-01-01 13:43:00,46.0,42.3,30.23,NW,322,1.0,6.0,87,0.00,,,0.51,Wunderground v.1.15,2013-01-01 19:43:00,
2013-01-01 13:49:00,46.1,42.1,30.23,WNW,295,2.0,8.0,86,0.00,,,0.51,Wunderground v.1.15,2013-01-01 19:49:00,
2013-01-01 13:54:00,45.8,41.9,30.23,WNW,297,3.0,6.0,86,0.00,,,0.51,Wunderground v.1.15,2013-01-01 19:54:00,
2013-01-01 13:59:00,45.6,41.7,30.23,NW,319,3.0,8.0,86,0.00,,,0.51,Wunderground v.1.15,2013-01-01 19:59:00,
2013-01-01 14:04:00,45.3,41.4,30.23,WSW,238,4.0,7.0,86,0.00,,,0.51,Wunderground v.1.15,2013-01-01 20:04:00,
2013-01-01 14:09:00,45.2,41.6,30.23,NW,308,7.0,7.0,87,0.00,,,0.51,Wunderground v.1.15,2013-01-01 20:09:00,
2013-01-01 14:14:00,45.3,41.7,30.23,WNW,288,1.0,6.0,87,0.00,,,0.51,Wunderground v.1.15,2013-01-01 20:14:00,
2013-01-01 14:19:00,45.2,41.3,30.23,West,262,2.0,9.0,86,0.00,,,0.51,Wunderground v.1.15,2013-01-01 20:19:00,
2013-01-01 14:24:00,45.1,41.2,30.23,NNW,341,3.0,9.0,86,0.00,,,0.51,Wunderground v.1.15,2013-01-01 20:24:00,
2013-01-01 14:29:00,44.9,41.0,30.23,West,274,1.0,9.0,86,0.00,,,0.51,Wunderground v.1.15,2013-01-01 20:29:00,
2013-01-01 14:34:00,45.0,41.1,30.23,WNW,288,7.0,7.0,86,0.00,,,0.51,Wunderground v.1.15,2013-01-01 20:34:00,
2013-01-01 14:39:00,44.9,40.7,30.23,West,278,6.0,8.0,85,0.00,,,0.51,Wunderground v.1.15,2013-01-01 20:39:00,
2013-01-01 14:44:00,44.8,40.6,30.23,WNW,287,1.0,8.0,85,0.00,,,0.51,Wunderground v.1.15,2013-01-01 20:44:00,
2013-01-01 14:50:00,44.7,40.8,30.23,West,278,4.0,4.0,86,0.00,,,0.51,Wunderground v.1.15,2013-01-01 20:50:00,
2013-01-01 14:55:00,44.6,40.7,30.23,WNW,283,1.0,9.0,86,0.00,,,0.51,Wunderground v.1.15,2013-01-01 20:55:00,
2013-01-01 15:00:00,44.6,40.7,30.23,NE,53,2.0,3.0,86,0.00,,,0.51,Wunderground v.1.15,2013-01-01 21:00:00,
2013-01-01 15:05:00,44.6,40.7,30.23,WNW,288,3.0,4.0,86,0.00,,,0.51,Wunderground v.1.15,2013-01-01 21:05:00,
2013-01-01 15:10:00,44.6,40.7,30.23,NW,319,3.0,3.0,86,0.00,,,0.51,Wunderground v.1.15,2013-01-01 21:10:00,
2013-01-01 15:15:00,44.6,40.7,30.23,West,264,0.0,7.0,86,0.00,,,0.51,Wunderground v.1.15,2013-01-01 21:15:00,
2013-01-01 15:20:00,44.7,40.8,30.23,NW,307,5.0,5.0,86,0.00,,,0.51,Wunderground v.1.15,2013-01-01 21:20:00,
2013-01-01 15:25:00,44.7,40.8,30.23,SW,221,2.0,7.0,86,0.00,,,0.51,Wunderground v.1.15,2013-01-01 21:25:00,
2013-01-01 15:30:00,44.7,40.5,30.23,WNW,300,2.0,6.0,85,0.00,,,0.51,Wunderground v.1.15,2013-01-01 21:30:00,
2013-01-01 15:35:00,44.6,40.4,30.24,WNW,300,5.0,6.0,85,0.00,,,0.51,Wunderground v.1.15,2013-01-01 21:35:00,
2013-01-01 15:40:00,44.5,40.3,30.24,WNW,297,3.0,8.0,85,0.00,,,0.51,Wunderground v.1.15,2013-01-01 21:40:00,
2013-01-01 15:46:00,44.5,40.3,30.24,WNW,288,4.0,8.0,85,0.00,,,0.51,Wunderground v.1.15,2013-01-01 21:46:00,
2013-01-01 15:51:00,44.6,40.7,30.25,West,281,0.0,3.0,86,0.00,,,0.51,Wunderground v.1.15,2013-01-01 21:51:00,
2013-01-01 15:56:00,44.6,40.7,30.25,West,275,1.0,6.0,86,0.00,,,0.51,Wunderground v.1.15,2013-01-01 21:56:00,
2013-01-01 16:01:00,44.5,40.6,30.26,NNE,12,2.0,2.0,86,0.00,,,0.51,Wunderground v.1.15,2013-01-01 22:01:00,
2013-01-01 16:06:00,44.4,40.5,30.26,WNW,300,3.0,6.0,86,0.00,,,0.51,Wunderground v.1.15,2013-01-01 22:06:00,
2013-01-01 16:11:00,44.4,40.5,30.25,NW,314,1.0,4.0,86,0.00,,,0.51,Wunderground v.1.15,2013-01-01 22:11:00,
2013-01-01 16:16:00,44.3,40.4,30.26,SSW,210,2.0,8.0,86,0.00,,,0.51,Wunderground v.1.15,2013-01-01 22:16:00,
2013-01-01 16:21:00,44.3,40.4,30.26,WNW,297,2.0,4.0,86,0.00,,,0.51,Wunderground v.1.15,2013-01-01 22:21:00,
2013-01-01 16:26:00,44.2,40.3,30.26,WNW,299,5.0,7.0,86,0.00,,,0.51,Wunderground v.1.15,2013-01-01 22:26:00,
2013-01-01 16:31:00,44.1,40.2,30.26,WSW,252,2.0,9.0,86,0.00,,,0.51,Wunderground v.1.15,2013-01-01 22:31:00,
2013-01-01 16:36:00,44.0,40.1,30.26,NW,322,1.0,9.0,86,0.00,,,0.51,Wunderground v.1.15,2013-01-01 22:36:00,
2013-01-01 16:42:00,43.9,40.0,30.27,West,276,2.0,4.0,86,0.00,,,0.51,Wunderground v.1.15,2013-01-01 22:42:00,
2013-01-01 16:47:00,43.8,39.9,30.26,NNE,15,3.0,8.0,86,0.00,,,0.51,Wunderground v.1.15,2013-01-01 22:47:00,
2013-01-01 16:51:00,43.6,39.7,30.27,ENE,63,4.0,7.0,86,0.00,,,0.51,Wunderground v.1.15,2013-01-01 22:51:00,
2013-01-01 16:56:00,43.3,39.4,30.27,WNW,293,5.0,7.0,86,0.00,,,0.51,Wunderground v.1.15,2013-01-01 22:56:00,
2013-01-01 17:01:00,43.1,39.2,30.27,North,4,2.0,4.0,86,0.00,,,0.51,Wunderground v.1.15,2013-01-01 23:01:00,
2013-01-01 17:07:00,43.0,39.4,30.27,SW,229,1.0,4.0,87,0.00,,,0.51,Wunderground v.1.15,2013-01-01 23:07:00,
2013-01-01 17:12:00,42.9,39.3,30.27,West,279,1.0,6.0,87,0.00,,,0.51,Wunderground v.1.15,2013-01-01 23:12:00,
2013-01-01 17:17:00,42.8,39.2,30.27,West,273,1.0,6.0,87,0.00,,,0.51,Wunderground v.1.15,2013-01-01 23:17:00,
2013-01-01 17:22:00,42.7,39.1,30.27,West,259,2.0,7.0,87,0.00,,,0.51,Wunderground v.1.15,2013-01-01 23:22:00,
2013-01-01 17:27:00,42.7,39.1,30.27,WSW,243,1.0,7.0,87,0.00,,,0.51,Wunderground v.1.15,2013-01-01 23:27:00,
2013-01-01 17:32:00,42.6,39.0,30.27,WNW,284,1.0,6.0,87,0.00,,,0.51,Wunderground v.1.15,2013-01-01 23:32:00,
2013-01-01 17:37:00,42.5,38.9,30.28,NW,324,5.0,7.0,87,0.00,,,0.51,Wunderground v.1.15,2013-01-01 23:37:00,
2013-01-01 17:42:00,42.4,38.8,30.28,NW,308,1.0,4.0,87,0.00,,,0.51,Wunderground v.1.15,2013-01-01 23:42:00,
2013-01-01 17:47:00,42.4,38.8,30.28,WNW,300,5.0,5.0,87,0.00,,,0.51,Wunderground v.1.15,2013-01-01 23:47:00,
2013-01-01 17:52:00,42.3,38.7,30.28,North,9,8.0,8.0,87,0.00,,,0.51,Wunderground v.1.15,2013-01-01 23:52:00,
2013-01-01 17:57:00,42.2,38.3,30.28,SW,235,4.0,11.0,86,0.00,,,0.51,Wunderground v.1.15,2013-01-01 23:57:00,
2013-01-01 18:02:00,42.2,38.3,30.28,WNW,297,5.0,6.0,86,0.00,,,0.51,Wunderground v.1.15,2013-01-02 00:02:00,
2013-01-01 18:07:00,42.1,38.2,30.28,NW,304,1.0,7.0,86,0.00,,,0.51,Wunderground v.1.15,2013-01-02 00:07:00,
2013-01-01 18:12:00,42.1,38.2,30.29,WSW,246,9.0,9.0,86,0.00,,,0.51,Wunderground v.1.15,2013-01-02 00:12:00,
2013-01-01 18:17:00,42.0,38.1,30.29,NW,311,2.0,11.0,86,0.00,,,0.51,Wunderground v.1.15,2013-01-02 00:17:00,
2013-01-01 18:22:00,41.9,38.3,30.29,NNW,340,4.0,8.0,87,0.00,,,0.51,Wunderground v.1.15,2013-01-02 00:22:00,
2013-01-01 18:28:00,41.9,38.3,30.29,NNW,333,4.0,8.0,87,0.00,,,0.51,Wunderground v.1.15,2013-01-02 00:28:00,
2013-01-01 18:33:00,41.8,38.2,30.29,NW,321,4.0,5.0,87,0.00,,,0.51,Wunderground v.1.15,2013-01-02 00:33:00,
2013-01-01 18:38:00,41.7,38.1,30.29,West,273,3.0,9.0,87,0.00,,,0.51,Wunderground v.1.15,2013-01-02 00:38:00,
2013-01-01 18:43:00,41.6,38.0,30.29,NW,304,2.0,8.0,87,0.00,,,0.51,Wunderground v.1.15,2013-01-02 00:43:00,
2013-01-01 18:48:00,41.5,37.9,30.29,NW,304,2.0,9.0,87,0.00,,,0.51,Wunderground v.1.15,2013-01-02 00:48:00,
2013-01-01 18:53:00,41.4,37.8,30.30,ENE,58,2.0,5.0,87,0.00,,,0.51,Wunderground v.1.15,2013-01-02 00:53:00,
2013-01-01 18:58:00,41.3,37.7,30.30,NW,308,2.0,5.0,87,0.00,,,0.51,Wunderground v.1.15,2013-01-02 00:58:00,
2013-01-01 19:03:00,41.2,37.6,30.30,WNW,290,1.0,4.0,87,0.00,,,0.51,Wunderground v.1.15,2013-01-02 01:03:00,
2013-01-01 19:08:00,41.2,37.6,30.30,NNW,340,2.0,8.0,87,0.00,,,0.51,Wunderground v.1.15,2013-01-02 01:08:00,
2013-01-01 19:13:00,41.1,37.2,30.31,WSW,238,1.0,6.0,86,0.00,,,0.51,Wunderground v.1.15,2013-01-02 01:13:00,
2013-01-01 19:18:00,41.1,37.2,30.31,WNW,295,2.0,10.0,86,0.00,,,0.51,Wunderground v.1.15,2013-01-02 01:18:00,
2013-01-01 19:23:00,41.1,37.2,30.30,ENE,72,5.0,6.0,86,0.00,,,0.51,Wunderground v.1.15,2013-01-02 01:23:00,
2013-01-01 19:28:00,41.1,37.2,30.31,WSW,240,1.0,7.0,86,0.00,,,0.51,Wunderground v.1.15,2013-01-02 01:28:00,
2013-01-01 19:33:00,41.1,36.9,30.31,WNW,290,4.0,10.0,85,0.00,,,0.51,Wunderground v.1.15,2013-01-02 01:33:00,
2013-01-01 19:38:00,41.1,36.9,30.32,ENE,58,1.0,10.0,85,0.00,,,0.51,Wunderground v.1.15,2013-01-02 01:38:00,
2013-01-01 19:44:00,41.1,36.9,30.31,SW,224,1.0,6.0,85,0.00,,,0.51,Wunderground v.1.15,2013-01-02 01:44:00,
2013-01-01 19:49:00,41.1,36.6,30.32,NW,311,3.0,6.0,84,0.00,,,0.51,Wunderground v.1.15,2013-01-02 01:49:00,
2013-01-01 19:54:00,41.1,36.9,30.31,NNW,345,2.0,3.0,85,0.00,,,0.51,Wunderground v.1.15,2013-01-02 01:54:00,
2013-01-01 19:59:00,41.1,36.9,30.32,West,263,1.0,3.0,85,0.00,,,0.51,Wunderground v.1.15,2013-01-02 01:59:00,
2013-01-01 20:04:00,41.1,36.9,30.32,NNW,345,0.0,5.0,85,0.00,,,0.51,Wunderground v.1.15,2013-01-02 02:04:00,
2013-01-01 20:09:00,41.0,37.1,30.32,West,273,0.0,5.0,86,0.00,,,0.51,Wunderground v.1.15,2013-01-02 02:09:00,
2013-01-01 20:14:00,41.0,37.1,30.32,NE,46,1.0,2.0,86,0.00,,,0.00,Wunderground v.1.15,2013-01-02 02:14:00,
2013-01-01 20:19:00,41.0,37.1,30.32,NNW,341,1.0,5.0,86,0.00,,,0.00,Wunderground v.1.15,2013-01-02 02:19:00,
2013-01-01 20:24:00,41.0,36.8,30.32,NNW,345,1.0,6.0,85,0.00,,,0.00,Wunderground v.1.15,2013-01-02 02:24:00,
2013-01-01 20:29:00,41.0,36.8,30.32,NW,322,1.0,6.0,85,0.00,,,0.00,Wunderground v.1.15,2013-01-02 02:29:00,
2013-01-01 20:34:00,41.0,36.8,30.32,NW,324,3.0,3.0,85,0.00,,,0.00,Wunderground v.1.15,2013-01-02 02:34:00,
2013-01-01 20:39:00,40.9,36.7,30.32,NNE,12,1.0,5.0,85,0.00,,,0.00,Wunderground v.1.15,2013-01-02 02:39:00,
2013-01-01 20:44:00,40.9,36.7,30.32,NNW,330,1.0,3.0,85,0.00,,,0.00,Wunderground v.1.15,2013-01-02 02:44:00,
2013-01-01 20:49:00,40.9,36.7,30.31,ENE,67,1.0,4.0,85,0.00,,,0.00,Wunderground v.1.15,2013-01-02 02:49:00,
2013-01-01 20:54:00,40.8,36.6,30.32,NNE,18,3.0,3.0,85,0.00,,,0.00,Wunderground v.1.15,2013-01-02 02:54:00,
2013-01-01 20:59:00,40.8,36.3,30.32,WNW,290,1.0,3.0,84,0.00,,,0.00,Wunderground v.1.15,2013-01-02 02:59:00,
2013-01-01 21:04:00,40.8,36.3,30.32,NW,316,1.0,3.0,84,0.00,,,0.00,Wunderground v.1.15,2013-01-02 03:04:00,
2013-01-01 21:09:00,40.8,36.3,30.32,NE,50,1.0,8.0,84,0.00,,,0.00,Wunderground v.1.15,2013-01-02 03:09:00,
2013-01-01 21:14:00,40.8,36.3,30.32,WNW,294,1.0,5.0,84,0.00,,,0.00,Wunderground v.1.15,2013-01-02 03:14:00,
2013-01-01 21:19:00,40.8,36.3,30.31,NNE,22,3.0,5.0,84,0.00,,,0.00,Wunderground v.1.15,2013-01-02 03:19:00,
2013-01-01 21:24:00,40.8,36.3,30.31,NNE,27,2.0,3.0,84,0.00,,,0.00,Wunderground v.1.15,2013-01-02 03:24:00,
2013-01-01 21:29:00,40.8,36.3,30.31,WNW,288,1.0,3.0,84,0.00,,,0.00,Wunderground v.1.15,2013-01-02 03:29:00,
2013-01-01 21:34:00,40.7,36.2,30.32,NNW,345,1.0,2.0,84,0.00,,,0.00,Wunderground v.1.15,2013-01-02 03:34:00,
2013-01-01 21:39:00,40.7,36.5,30.32,NW,308,0.0,2.0,85,0.00,,,0.00,Wunderground v.1.15,2013-01-02 03:39:00,
2013-01-01 21:44:00,40.7,36.5,30.32,WNW,302,1.0,7.0,85,0.00,,,0.00,Wunderground v.1.15,2013-01-02 03:44:00,
2013-01-01 21:49:00,40.7,36.5,30.32,NNW,328,0.0,7.0,85,0.00,,,0.00,Wunderground v.1.15,2013-01-02 03:49:00,
2013-01-01 21:54:00,40.7,36.5,30.32,West,271,2.0,6.0,85,0.00,,,0.00,Wunderground v.1.15,2013-01-02 03:54:00,
2013-01-01 21:59:00,40.7,36.5,30.32,NW,316,4.0,6.0,85,0.00,,,0.00,Wunderground v.1.15,2013-01-02 03:59:00,
2013-01-01 22:04:00,40.6,36.4,30.32,NNW,343,0.0,4.0,85,0.00,,,0.00,Wunderground v.1.15,2013-01-02 04:04:00,
2013-01-01 22:10:00,40.6,36.4,30.31,NW,310,1.0,1.0,85,0.00,,,0.00,Wunderground v.1.15,2013-01-02 04:10:00,
2013-01-01 22:15:00,40.6,36.4,30.32,NNW,343,1.0,3.0,85,0.00,,,0.00,Wunderground v.1.15,2013-01-02 04:15:00,
2013-01-01 22:20:00,40.6,36.4,30.32,NW,321,2.0,2.0,85,0.00,,,0.00,Wunderground v.1.15,2013-01-02 04:20:00,
2013-01-01 22:25:00,40.6,36.7,30.32,NW,324,5.0,5.0,86,0.00,,,0.00,Wunderground v.1.15,2013-01-02 04:25:00,
2013-01-01 22:30:00,40.6,36.4,30.32,NE,49,4.0,5.0,85,0.00,,,0.00,Wunderground v.1.15,2013-01-02 04:30:00,
2013-01-01 22:35:00,40.6,36.4,30.32,West,266,0.0,5.0,85,0.00,,,0.00,Wunderground v.1.15,2013-01-02 04:35:00,
2013-01-01 22:40:00,40.5,36.3,30.32,West,279,0.0,2.0,85,0.00,,,0.00,Wunderground v.1.15,2013-01-02 04:40:00,
2013-01-01 22:45:00,40.4,36.2,30.33,NE,34,3.0,4.0,85,0.00,,,0.00,Wunderground v.1.15,2013-01-02 04:45:00,
2013-01-01 22:50:00,40.4,36.2,30.33,WNW,284,2.0,2.0,85,0.00,,,0.00,Wunderground v.1.15,2013-01-02 04:50:00,
2013-01-01 22:55:00,40.4,36.2,30.33,North,354,2.0,7.0,85,0.00,,,0.00,Wunderground v.1.15,2013-01-02 04:55:00,
2013-01-01 23:00:00,40.3,36.1,30.33,NW,312,3.0,3.0,85,0.00,,,0.00,Wunderground v.1.15,2013-01-02 05:00:00,
2013-01-01 23:01:00,40.3,36.1,30.33,WNW,299,3.0,5.0,85,0.00,,,0.00,Wunderground v.1.15,2013-01-02 05:01:00,
2013-01-01 23:02:00,40.3,36.1,30.33,WNW,283,1.0,5.0,85,0.00,,,0.00,Wunderground v.1.15,2013-01-02 05:02:00,
2013-01-01 23:06:00,40.3,36.1,30.34,WNW,296,4.0,5.0,85,0.00,,,0.00,Wunderground v.1.15,2013-01-02 05:06:00,
2013-01-01 23:12:00,40.3,35.8,30.34,ENE,67,1.0,7.0,84,0.00,,,0.00,Wunderground v.1.15,2013-01-02 05:12:00,
2013-01-01 23:17:00,40.2,35.8,30.34,NW,321,0.0,7.0,84,0.00,,,0.00,Wunderground v.1.15,2013-01-02 05:17:00,
2013-01-01 23:22:00,40.1,35.4,30.34,NNE,12,2.0,6.0,83,0.00,,,0.00,Wunderground v.1.15,2013-01-02 05:22:00,
2013-01-01 23:27:00,40.0,35.3,30.34,West,280,2.0,6.0,83,0.00,,,0.00,Wunderground v.1.15,2013-01-02 05:27:00,
2013-01-01 23:32:00,39.9,35.2,30.34,East,79,0.0,2.0,83,0.00,,,0.00,Wunderground v.1.15,2013-01-02 05:32:00,
2013-01-01 23:37:00,39.9,35.2,30.34,NW,315,0.0,6.0,83,0.00,,,0.00,Wunderground v.1.15,2013-01-02 05:37:00,
2013-01-01 23:42:00,39.7,35.0,30.34,WNW,297,0.0,2.0,83,0.00,,,0.00,Wunderground v.1.15,2013-01-02 05:42:00,
2013-01-01 23:48:00,39.6,34.9,30.33,NE,43,2.0,4.0,83,0.00,,,0.00,Wunderground v.1.15,2013-01-02 05:48:00,
2013-01-01 23:53:00,39.5,34.8,30.33,WNW,283,0.0,3.0,83,0.00,,,0.00,Wunderground v.1.15,2013-01-02 05:53:00,
2013-01-01 23:58:00,39.5,34.8,30.34,West,275,2.0,6.0,83,0.00,,,0.00,Wunderground v.1.15,2013-01-02 05:58:00,